Location: Chefe Valiua
(16.5342°S, 37.2214°E)
Time: 00:23:44
(UTC+00:00)

Cosmos 2058 - Pass Details

Date: 19 January 2021
Orbit: 561 x 584 km, 82.5° (Epoch: 07 March)

Event Time Altitude Azimuth Distance (km) Brightness Sun altitude
Rises 17:20:48 0° 176° (S) 2,811 6.8 -16.1°
Reaches altitude 10° 17:23:04 10° 170° (S) 1,909 5.8 -16.6°
Maximum altitude 17:27:07 47° 96° (E) 781 3.2 -17.5°
Enters shadow 17:28:14 37° 52° (NE) 915 3.4 -17.7°
